Location: Azul
(36.7830°S, 59.8500°W)
Time: 09:34:11
(UTC-03:00)

POLYITAN 1 - Visible Passes

Search period start: 22 October 2021 00:00
Search period end: 01 November 2021 00:00
Orbit: 588 x 611 km, 97.9° (Epoch: 22 October)

Date Brightness Start Highest point End Pass type
(mag) Time Alt. Az. Time Alt. Az. Time Alt. Az.
26 Oct ? 01:33:44 10° S 01:33:44 10° S 01:33:45 10° S visible
27 Oct ? 01:44:43 10° SSW 01:44:43 10° SSW 01:44:46 10° SSW visible
31 Oct ? 00:52:00 11° SSE 00:52:00 11° SSE 00:52:16 10° SSE visible
